Current Version              Previous Version:    01  02  03  04  05  06  07  08  09  10  11  12  13  14  15  16  17  18  19  20  21  22  23  24  25  26  27  28  29  30  
   31  32  33  34  35  36  37  38  39  40  41  42  43  44  45  46  47  48  49  50  51  52  53  54  55  56  57  58  59  60  

[Printable]
787
ASUS44 KFWD 180103
RWRTX
NORTH TEXAS HOURLY WEATHER ROUNDUP
NATIONAL WEATHER SERVICE FORT WORTH TX
800 PM CDT THU APR 17 2014

NOTE: "FAIR" INDICATES FEW OR NO CLOUDS BELOW 12,000 FEET WITH NO
SIGNIFICANT WEATHER AND/OR OBSTRUCTIONS TO VISIBILITY.

TXZ118-119-180200-
DALLAS/FORT WORTH METROPLEX

CITY           SKY/WX    TMP DP  RH WIND       PRES   REMARKS
DFW AIRPORT    CLOUDY    59  54  83 NE7       30.14S
DALLAS LOVE    CLOUDY    62  51  67 NE6       30.14S
FTW MEACHAM    CLOUDY    58  56  93 NE7       30.14R FOG
DAL-EXECUTIVE  CLOUDY    62  52  69 N7        30.14S
FTW-ALLIANCE   DRIZZLE   56  55  97 NE6       30.15S FOG
FTW-NAS-JRB    CLOUDY    61  54  77 NE14      30.19R FOG
FTW-SPINKS     CLOUDY    61  54  78 NE8       30.15S HAZE
ARLINGTON      CLOUDY    60  54  80 NE9       30.14R
GRAND PRAIRIE  PTCLDY    61  54  77 NE6       30.17R
ADDISON        CLOUDY    61  52  72 N7        30.15F
MESQUITE       CLOUDY    61  52  72 N6        30.15R
LANCASTER      CLOUDY    61  52  71 N3        30.15S
$$

TXZ091>094-102>105-117-120-121-131>134-180200-
NORTH CENTRAL TEXAS

CITY           SKY/WX    TMP DP  RH WIND       PRES   REMARKS
GAINESVILLE    CLOUDY    57  52  84 CALM      30.19R
BOWIE          CLOUDY    56  54  94 E3        30.17R
BRIDGEPORT     DRIZZLE   56  56  99 E8        30.18R
DECATUR        CLOUDY    55  55 100 E8        30.16R FOG
DENTON         CLOUDY    57  55  93 CALM      30.16R
MCKINNEY       CLOUDY    60  52  74 N3        30.16R
GREENVILLE     CLOUDY    63  50  63 CALM      30.16R
ROCKWALL       CLOUDY    62  52  69 NW8       30.14R
TERRELL        CLOUDY    63  52  67 N5        30.14S
WAXAHACHIE     CLOUDY    60  52  74 NE6       30.15R
CLEBURNE       CLOUDY    61  57  88 E5        30.15S FOG
GRANBURY       CLOUDY    60  58  92 CALM      30.15S FOG
$$

TXZ083>090-098>101-113>116-127>130-139>142-154-155-180200-
WESTERN NORTH TEXAS

CITY           SKY/WX    TMP DP  RH WIND       PRES   REMARKS
WICHITA FALLS  LGT RAIN  55  54  96 E12       30.17R FOG
WF-KICKAPOO    DRIZZLE   56  55  97 E8        30.19R
VERNON         CLOUDY    51  48  91 N9        30.20S
ABILENE        CLOUDY    56  52  86 N12       30.14R
ABILENE-DYESS  MOCLDY    56  52  85 N10       30.14R
BRECKENRIDGE   CLOUDY    64  54  71 SE5       30.13R
GRAHAM         CLOUDY    57  55  92 E7        30.13S
MINERAL WELLS  LGT RAIN  57  56  96 E6        30.13R FOG
STEPHENVILLE   CLOUDY    58  56  91 E3        30.15S
COMANCHE       CLOUDY    59  58  96 E6        30.13S
BROWNWOOD      CLOUDY    61  57  88 E5        30.12S
COLEMAN        CLOUDY    60  55  82 SE5       30.12R
BRADY          CLOUDY    59  57  94 E5        30.11S
$$

TXZ143>147-156>162-174-175-180200-
CENTRAL TEXAS

CITY           SKY/WX    TMP DP  RH WIND       PRES   REMARKS
WACO           CLOUDY    61  59  93 N6        30.13R FOG
WACO-MCGREGOR  CLOUDY    61  55  82 CALM      30.14S
HILLSBORO      MOCLDY    62  54  74 N5        30.13S
CORSICANA      CLOUDY    67  52  58 CALM      30.13R
MEXIA          CLOUDY    65  57  74 CALM      30.11R
HEARNE         DRIZZLE   65  59  80 NW5       30.11R
CAMERON        CLOUDY    65  59  79 W7        30.11R
TEMPLE         CLOUDY    63  55  77 N6        30.14S
KILLEEN        CLOUDY    63  59  88 NE5       30.11R
KILLEEN-SKYLRK MOCLDY    63  55  77 NE3       30.09F
GATESVILLE     MOCLDY    61  61 100 CALM      30.15R FOG
HAMILTON       CLOUDY    61  60  96 SE3       30.13S
LAMPASAS       CLOUDY    62  59  90 CALM      30.12R
$$

TXZ095>097-106>112-122>126-135>138-148>153-164>167-180200-
EAST TEXAS

CITY           SKY/WX    TMP DP  RH WIND       PRES   REMARKS
PARIS          MOCLDY    61  48  63 E5        30.17F
SULPHUR SPRNGS CLOUDY    63  50  63 E5        30.17S
CLARKSVILLE    MOCLDY    63  44  51 CALM      30.17S
MOUNT PLEASANT CLOUDY    62  46  55 CALM      30.18R
MINEOLA        MOCLDY    64  48  55 E3        30.16R
TYLER          CLOUDY    66  48  52 E7        30.14R
LONGVIEW       PTCLDY    60  48  64 CALM      30.15R
MARSHALL       MOCLDY    58  48  67 CALM      30.17R
ATHENS         CLOUDY    64  50  59 CALM      30.12R
PALESTINE      CLOUDY    67  51  55 NE5       30.15R
JACKSONVILLE   CLOUDY    62  49  62 NE5       30.16R
HENDERSON      CLOUDY    60  48  64 CALM      30.16R
NACOGDOCHES    CLEAR     61  45  55 NE3       30.15R
LUFKIN         PTCLDY    65  52  62 NE3       30.13R
$$

SUPPLEMENTAL OBSERVATIONS (CENTRAL)

CITY           SKY/WX    TMP DP  RH WIND       PRES   REMARKS
$$

SUPPLEMENTAL OBSERVATIONS (WEST)

CITY           SKY/WX    TMP DP  RH WIND       PRES   REMARKS
$$

SUPPLEMENTAL OBSERVATIONS (EAST)

CITY           SKY/WX    TMP DP  RH WIND       PRES   REMARKS
$$

SUPPLEMENTAL OBSERVATIONS ARE A COLLECTION OF AUTOMATED INSTRUMENTS
THAT ARE MAINTAINED BY A VARIETY OF FEDERAL AND STATE AGENCIES.
CERTAIN ELEMENTS...SUCH AS HUMIDITY VALUES AND SUSTAINED WIND
SPEEDS...MAY BE APPROXIMATED.